Content
SEND FEEDBACK

Daily
Averages
Monthly
Summary
United States of America

CHICAGO, ILLINOIS


Home > North America > United States > Illinois
Elevation: 205 meters     Latitude: 41 59N     Longitude: 087 54W

WEATHER
 
SELECT A DAY
Number of Records: 198,805;   Date Range: 7/8/95 - 11/23/14
 
SHARE

PRINT THIS DATA

[ ← Previous Day ]
WEATHER ALMANAC - 25 SEPTEMBER, 2013
[ Next Day → ]
[ °F ]   °C
Weather ElementAverageHighLow
Temperature15.3 °C20.6 °C (2:52 pm)10 °C (5:52 am)
Dewpoint10.4 °C13.3 °C (8:52 am)8.3 °C (5:52 am)
Humidity74.1 %90 % (1:52 am)54 % (12:52 pm)
Barometer1015.2 hPa1016.3 hPa (10:52 am)1014.6 hPa (1:52 am)
Wind Speed5.3 km/h16.7 km/h (3:52 pm)
Weather ElementAverage
Visibility13.8 km
Wind DirectionNNE (35.7 °)

Weather ElementTotal
Precipitation---
Heating Degree Days3.1 (Base 18.3)
Growing Degree Days5.3 (Base 10)
Averaged from 23 records on 25 September, 2013
WEATHER CONDITIONS BREAKOUT
WIND DIRECTION BREAKOUT
WEATHER BY HOUR - 25 SEPTEMBER, 2013
[ °F ]   °C
Local TimeTemperatureDewpointHumidityBarometerVisibilityWind DirectionWind SpeedGust SpeedPrecipitationEventsConditions
1:52 AM12.2 °C10.6 °C90 %1014.6 hPa9.7 kmCalmClear
2:52 AM11.1 °C9.4 °C89 %1014.6 hPa12.9 kmCalmClear
3:52 AM10.6 °C8.9 °C89 %1014.6 hPa14.5 kmCalmClear
4:52 AM11.1 °C9.4 °C89 %1014.6 hPa9.7 kmCalmClear
5:52 AM10 °C8.3 °C89 %1014.6 hPa9.7 kmCalmClear
6:52 AM10.6 °C8.9 °C89 %1015.2 hPa9.7 kmCalmClear
7:52 AM12.8 °C10.6 °C86 %1015.6 hPa11.3 kmCalmClear
8:52 AM17.8 °C13.3 °C75 %1015.6 hPa14.5 kmNE (40°)5.6 km/hClear
9:52 AM19.4 °C12.2 °C63 %1015.9 hPa16.1 kmENE (60°)13 km/hClear
10:52 AM19.4 °C11.7 °C61 %1016.3 hPa16.1 kmENE (60°)14.8 km/hPartly Cloudy
11:52 AM19.4 °C10.6 °C57 %1015.9 hPa16.1 kmENE (70°)14.8 km/hScattered Clouds
12:52 PM19.4 °C10 °C54 %1015.6 hPa16.1 kmENE (70°)7.4 km/hClear
1:52 PM20 °C10.6 °C55 %1015.2 hPa16.1 kmVariable5.6 km/hClear
2:52 PM20.6 °C11.1 °C54 %1014.9 hPa16.1 kmNE (40°)11.1 km/hClear
3:52 PM19.4 °C10.6 °C57 %1014.9 hPa16.1 kmNNE (30°)16.7 km/hClear
4:52 PM18.9 °C11.1 °C60 %1015.2 hPa16.1 kmNNE (20°)13 km/hClear
5:52 PM17.8 °C10.6 °C63 %1015.6 hPa16.1 kmENE (60°)7.4 km/hClear
6:52 PM16.1 °C10.6 °C70 %1015.2 hPa16.1 kmNNE (30°)5.6 km/hClear
7:52 PM14.4 °C10.6 °C78 %1015.2 hPa16.1 kmNNW (340°)5.6 km/hClear
8:52 PM13.9 °C10.6 °C81 %1015.2 hPa14.5 kmCalmClear
9:52 PM13.3 °C10.6 °C84 %1015.6 hPa12.9 kmCalmClear
10:52 PM12.8 °C10 °C83 %1015.6 hPa11.3 kmCalmClear
11:52 PM11.7 °C10 °C89 %1015.6 hPa11.3 kmCalmClear
Hourly data recorded from KPWK, located 0 kilometers away from Chicago, Illinois







STORIES FROM OUR PARTNERS